Location: Austin
(30.3000°N, 97.7500°W)
Time: 07:03:23
(UTC-05:00)

CZ-2C R/B - Pass Details

Date: 19 September 2023
Orbit: 704 x 905 km, 98.1° (Epoch: 25 September)

Event Time Altitude Azimuth Distance (km) Brightness Sun altitude
Rises 04:39:10 0° 10° (N) 3,533 6.9 -33.9°
Reaches altitude 10° 04:41:36 10° 9° (N) 2,588 6.1 -33.4°
Enters shadow 04:45:04 38° 2° (N) 1,348 4.3 -32.8°
